Location: Laterina
(43.5167°N, 11.7167°E)
Time: 16:40:11
(UTC+00:00)

Okean 2 Rocket - Pass Details

Date: 24 September 2020
Orbit: 616 x 642 km, 82.5° (Epoch: 25 October)

Event Time Altitude Azimuth Distance (km) Brightness Sun altitude
Rises 18:26:37 0° 201° (SSW) 2,927 6.6 -15.3°
Reaches altitude 10° 18:28:56 10° 207° (SSW) 2,019 5.8 -15.7°
Maximum altitude 18:33:16 48° 282° (WNW) 828 4.1 -16.4°
Drops below altitude 10° 18:37:37 10° 357° (N) 2,020 5.9 -17.2°
Sets 18:39:55 0° 3° (N) 2,927 6.7 -17.6°
